Location: Newark
(51.2625°N, 13.3939°E)
Time: 21:23:59
(UTC+00:00)

Transit 2A Rocket - Pass Details

Date: 22 November 2019
Orbit: 594 x 909 km, 66.7° (Epoch: 15 December)

Event Time Altitude Azimuth Distance (km) Brightness Sun altitude
Exits shadow 02:31:50 14° 65° (ENE) 1,693 7.4 -37.3°
Drops below altitude 10° 02:32:54 10° 76° (ENE) 1,968 7.9 -37.1°
Sets 02:35:45 0° 94° (E) 2,904 8.9 -36.7°
